This demonstration page uses our WeatherBlox Daily Observations layout. Learn more.

Left ArrowRight Arrow

40.92945, -100.16068

Hourly Observations for March 7, 2021

Temp ( °F °C ) Dew Point ( °F °C ) Humidity (%) Winds ( mph kmh ) Pressure ( in mb ) Visibility ( mi km ) Precip ( " mm )
12:15 am 00:15 Clear 49 9.3 33 0.5 54 54 S 21 33 30.01 1016 10 16.0934 0 0
12:35 am 00:35 Clear 48 9.1 33 0.5 55 55 S 21 33 30.01 1016 10 16.0934 0 0
12:55 am 00:55 Clear 47 8.6 33 0.5 57 57 S 20 31 30.01 1016 10 16.0934 0 0
1:15 am 01:15 Clear 47 8.2 33 0.6 59 59 S 21 33 30.01 1016 10 16.0934 0 0
1:35 am 01:35 Clear 47 8.2 33 0.7 60 60 S 20 31 30.01 1016 10 16.0934 0 0
1:55 am 01:55 Clear 46 8 33 0.8 61 61 S 20 31 30.01 1016 10 16.0934 0 0
2:15 am 02:15 Clear 46 7.6 33 0.7 62 62 S 17 28 30.01 1016 10 16.0934 0 0
2:35 am 02:35 Clear 46 7.5 33 0.8 63 63 S 17 28 30 1016 10 16.0934 0 0
2:55 am 02:55 Clear 46 7.5 34 1 64 64 S 18 30 29.99 1016 10 16.0934 0 0
3:15 am 03:15 Clear 45 7.3 34 0.9 64 64 S 15 24 30.01 1016 10 16.0934 0 0
3:35 am 03:35 Clear 45 7 33 0.7 65 65 S 6 9 30.03 1017 10 16.0934 0 0
3:55 am 03:55 Clear 44 6.9 33 0.7 65 65 S 15 24 30.01 1016 10 16.0934 0 0
4:15 am 04:15 Clear 44 6.8 33 0.7 65 65 S 18 30 30 1016 10 16.0934 0 0
4:35 am 04:35 Clear 44 6.5 33 0.7 67 67 S 17 28 29.99 1016 10 16.0934 0 0
4:55 am 04:55 Clear 43 6.2 33 0.6 68 68 S 8 13 30.03 1017 10 16.0934 0 0
5:15 am 05:15 Clear 43 6 33 0.6 69 69 S 9 15 30.03 1017 10 16.0934 0 0
5:35 am 05:35 Clear 41 5.2 33 0.3 71 71 SSE 3 6 30.05 1017 10 16.0934 0 0
5:55 am 05:55 Clear 42 5.6 33 0.3 69 69 S 12 19 30.04 1017 10 16.0934 0 0
6:15 am 06:15 Clear 41 5.1 32 0.2 71 71 SSE 13 20 30.05 1018 10 16.0934 0 0
6:35 am 06:35 Clear 41 4.8 33 0.5 74 74 S 9 15 30.05 1018 10 16.0934 0 0
6:55 am 06:55 Clear 39 3.7 32 0.1 78 78 SSE 10 17 30.06 1018 10 16.0934 0 0
7:15 am 07:15 Sunny 38 3.6 32 0.2 79 79 SSE 8 13 30.07 1018 10 16.0934 0 0
7:35 am 07:35 Sunny 39 4 33 0.5 78 78 SSE 9 15 30.07 1018 10 16.0934 0 0
7:55 am 07:55 Sunny 41 5 33 0.7 74 74 S 8 13 30.07 1018 10 16.0934 0 0
8:15 am 08:15 Sunny 44 6.6 34 1 68 68 S 14 22 30.06 1018 10 16.0934 0 0
8:35 am 08:35 Sunny 46 7.6 34 1.2 64 64 S 14 22 30.05 1018 10 16.0934 0 0
8:55 am 08:55 Sunny 47 8.1 34 1 61 61 S 15 24 30.05 1018 10 16.0934 0 0
9:15 am 09:15 Sunny 48 9 34 0.9 57 57 SSW 15 24 30.04 1017 10 16.0934 0 0
9:35 am 09:35 Sunny 49 9.7 33 0.8 54 54 SSW 14 22 30.03 1017 10 16.0934 0 0
9:55 am 09:55 Sunny 50 10 33 0.6 52 52 SSW 15 24 30.04 1017 10 16.0934 0 0
10:15 am 10:15 Sunny 51 10.7 33 0.8 51 51 SSW 12 19 30.03 1017 10 16.0934 0 0
10:35 am 10:35 Sunny 53 11.4 33 0.8 48 48 SW 12 19 30.04 1017 10 16.0934 0 0
10:55 am 10:55 Sunny 53 11.8 33 0.8 47 47 SSW 10 17 30.04 1017 10 16.0934 0 0
11:15 am 11:15 Sunny 55 12.5 33 0.6 44 44 SSW 9 15 30.04 1017 10 16.0934 0 0
11:35 am 11:35 Sunny 56 13.4 33 0.8 42 42 S 9 15 30.03 1017 10 16.0934 0 0
11:55 am 11:55 Sunny 57 14 33 0.8 41 41 S 7 11 30.02 1017 10 16.0934 0 0
12:15 pm 12:15 Sunny 58 14.7 33 0.7 39 39 SSW 6 9 30.02 1017 10 16.0934 0 0
12:35 pm 12:35 Sunny 60 15.6 34 0.9 37 37 WSW 7 11 30.01 1016 10 16.0934 0 0
12:55 pm 12:55 Sunny 61 16.2 33 0.7 35 35 SSW 5 7 30 1016 10 16.0934 0 0
1:15 pm 13:15 Sunny 61 16.2 33 0.3 34 34 S 3 6 30 1016 10 16.0934 0 0
1:35 pm 13:35 Sunny 63 17.1 33 0.5 33 33 Calm 29.98 1015 10 16.0934 0 0
1:55 pm 13:55 Sunny 64 18 33 0.6 31 31 WSW 5 7 29.97 1015 10 16.0934 0 0
2:15 pm 14:15 Sunny 65 18.3 33 0.3 30 30 SSE 5 7 29.96 1014 10 16.0934 0 0
2:35 pm 14:35 Sunny 66 18.9 33 0.6 29 29 SSW 3 6 29.95 1014 10 16.0934 0 0
2:55 pm 14:55 Sunny 67 19.3 33 0.6 29 29 S 7 11 29.95 1014 10 16.0934 0 0
3:15 pm 15:15 Sunny 67 19.7 33 0.3 27 27 S 3 6 29.94 1014 10 16.0934 0 0
3:35 pm 15:35 Sunny 68 19.9 33 0.3 27 27 SW 5 7 29.95 1014 10 16.0934 0 0
3:55 pm 15:55 Sunny 68 20 32 -0.1 26 26 SSE 5 7 29.95 1014 10 16.0934 0 0
4:15 pm 16:15 Sunny 68 19.9 34 1 28 28 SSW 5 7 29.95 1014 10 16.0934 0 0
4:35 pm 16:35 Sunny 68 20.1 33 0.7 27 27 S 8 13 29.95 1014 10 16.0934 0 0
4:55 pm 16:55 Sunny 68 20 32 0.2 27 27 SSW 7 11 29.95 1014 10 16.0934 0 0
5:15 pm 17:15 Sunny 67 19.5 33 0.7 29 29 S 7 11 29.96 1014 10 16.0934 0 0
5:35 pm 17:35 Sunny 67 19.2 34 1.3 30 30 S 5 7 29.97 1015 10 16.0934 0 0
5:55 pm 17:55 Sunny 65 18.2 35 1.6 33 33 S 5 7 29.98 1015 10 16.0934 0 0
6:15 pm 18:15 Sunny 64 17.5 35 1.6 35 35 SE 3 6 29.98 1015 10 16.0934 0 0
6:35 pm 18:35 Sunny 64 17.5 32 0 31 31 SE 5 7 29.99 1016 10 16.0934 0 0
6:57 pm 18:57 Clear 61 16 34 1 36 36 S 5 7 30.01 1016 10 16.0934 0 0
7:15 pm 19:15 Clear 60 15.7 32 0.1 35 35 SE 3 6 30.02 1017 10 16.0934 0 0
7:35 pm 19:35 Clear 60 15.4 32 0 35 35 SE 3 6 30.02 1017 10 16.0934 0 0
7:55 pm 19:55 Clear 59 14.8 33 0.4 38 38 SE 3 6 30.04 1017 10 16.0934 0 0
8:15 pm 20:15 Clear 52 11 37 2.7 57 57 Calm 30.07 1018 10 16.0934 0 0
8:35 pm 20:35 Clear 51 10.5 36 2.3 57 57 ENE 3 6 30.09 1019 10 16.0934 0 0
8:55 pm 20:55 Clear 49 9.6 36 2.1 60 60 E 3 6 30.09 1019 10 16.0934 0 0
9:15 pm 21:15 Clear 48 8.9 36 2 62 62 ENE 3 6 30.11 1020 10 16.0934 0 0
9:35 pm 21:35 Clear 45 7.1 35 1.8 69 69 Calm 30.14 1021 10 16.0934 0 0
9:55 pm 21:55 Clear 45 7 36 2.1 71 71 E 3 6 30.14 1021 10 16.0934 0 0
10:15 pm 22:15 Clear 45 7.2 34 1 65 65 Calm 30.14 1021 10 16.0934 0 0
10:35 pm 22:35 Clear 45 7.3 35 1.5 67 67 Calm 30.15 1021 10 16.0934 0 0
10:55 pm 22:55 Clear 42 5.4 35 1.6 77 77 Calm 30.16 1021 10 16.0934 0 0
11:15 pm 23:15 Clear 41 4.9 34 1.1 77 77 Calm 30.17 1022 10 16.0934 0 0
11:35 pm 23:35 Clear 41 4.9 34 1 76 76 Calm 30.17 1022 10 16.0934 0 0
11:55 pm 23:55 Clear 42 5.5 34 1 73 73 Calm 30.16 1021 10 16.0934 0 0

Powered by AerisWeather